Wind_Speed
26 27 27 27 26 24 23 21 20 18 17 15 14 13 11 12 14 18 21 23 26 28 30 32 33 34 35 35 36 37 39 41 42 45 46 48 51 53 54 55 56 58 59 60 62 63 65 68 69 70 69 68 67 67 67 64 56 47 39 33 28 27 26
27 28 28 27 26 25 23 22 21 20 18 16 14 13 12 14 17 19 22 25 27 29 31 32 33 34 34 35 36 37 39 40 42 44 45 47 49 52 55 57 57 59 60 61 63 64 65 67 69 70 71 71 70 69 69 67 61 50 40 33 27 24 23
28 29 29 29 28 27 26 24 23 21 20 18 17 16 16 17 19 22 24 26 28 30 31 32 33 34 35 35 36 38 39 40 41 43 43 44 47 50 53 56 58 60 61 63 65 66 67 68 69 70 71 71 71 70 70 69 65 55 42 33 27 22 20
28 29 30 31 31 30 29 27 25 24 22 20 20 19 20 21 22 24 25 27 29 30 31 33 34 35 36 36 37 38 39 40 40 41 42 42 45 49 52 54 57 59 61 63 65 67 68 69 69 70 71 72 72 71 71 71 68 58 45 33 26 21 17
28 29 30 31 32 32 31 30 29 28 26 24 23 23 23 24 24 26 27 28 29 31 32 33 34 36 37 37 37 37 38 38 39 40 41 41 43 47 50 53 55 58 60 63 65 66 67 68 69 69 71 72 73 73 73 73 70 61 48 34 26 21 16
29 30 30 31 32 32 32 32 32 31 31 30 29 28 27 27 27 28 29 30 31 32 33 34 35 36 37 37 37 37 37 37 37 39 39 40 42 46 49 52 54 56 59 62 65 66 68 69 70 71 72 72 73 74 75 75 72 62 49 36 26 20 15
31 31 32 33 33 33 33 33 33 33 33 33 33 32 32 31 30 30 30 30 31 32 32 33 34 35 36 36 36 35 35 35 36 37 38 39 41 44 48 51 54 56 59 62 65 67 69 70 71 72 74 75 75 75 76 76 74 63 49 36 26 20 15
35 35 35 35 35 34 34 33 33 33 34 34 34 34 35 35 34 33 32 32 31 31 32 32 33 33 33 34 33 33 34 34 36 37 37 38 40 43 46 50 53 56 59 62 65 67 70 71 72 73 75 77 78 78 78 78 74 62 47 36 26 19 15
40 40 39 38 38 37 36 35 34 33 34 34 35 35 36 36 36 36 35 34 34 33 33 33 33 33 32 32 32 33 33 34 35 36 38 39 40 42 45 49 52 56 59 62 65 68 70 72 74 75 76 78 79 80 81 80 73 59 45 35 25 18 15
43 43 42 42 42 42 41 39 37 36 34 34 35 35 35 35 35 36 36 36 36 35 35 35 34 34 34 33 33 34 34 35 37 37 38 39 40 42 45 48 52 56 59 62 66 69 71 73 75 77 79 80 81 81 82 82 72 57 43 33 24 17 14
43 43 43 43 43 43 43 43 42 41 39 38 36 36 35 35 35 35 36 36 36 36 36 36 36 36 36 35 35 35 36 37 38 39 39 40 41 43 45 48 52 56 59 63 66 70 72 75 77 79 81 82 82 82 84 82 70 54 42 32 23 16 13
41 41 42 42 42 43 43 43 44 44 45 44 43 40 38 37 36 36 36 36 36 36 36 36 36 36 36 36 36 37 38 39 40 40 40 41 42 44 46 49 53 57 60 63 67 70 74 76 78 81 82 83 83 84 85 81 66 52 41 30 22 15 11
39 39 40 40 41 42 42 43 43 44 45 46 47 46 44 42 40 39 38 38 37 37 37 37 37 36 36 36 37 38 39 40 41 41 42 42 44 46 48 50 53 57 60 63 67 71 74 77 79 82 84 85 85 86 87 80 64 50 39 29 20 14 10
40 39 39 39 39 40 41 42 42 43 44 44 46 47 48 47 45 44 43 42 40 39 38 38 38 38 37 37 38 38 40 41 42 42 43 44 46 48 50 51 54 57 60 63 67 71 75 78 80 83 85 86 87 88 88 78 62 49 38 28 19 12 9
40 40 39 39 39 39 40 40 41 42 43 43 44 45 46 48 48 48 47 46 45 43 42 40 40 39 39 38 38 39 40 41 43 44 45 46 47 49 50 52 54 57 60 63 67 71 74 77 80 83 86 87 88 89 88 77 60 48 37 27 18 11 9
39 40 39 39 40 40 40 40 40 40 41 42 43 43 44 45 46 47 48 48 48 47 46 44 42 41 40 40 40 41 41 42 43 45 46 48 49 50 51 53 54 56 59 63 66 70 74 77 80 83 86 87 88 90 87 74 59 47 36 27 18 10 8
40 40 40 40 41 41 41 41 41 41 40 40 41 42 43 43 44 45 46 48 49 49 49 49 47 46 44 43 43 43 43 44 45 46 47 49 50 51 52 53 54 56 59 62 66 70 73 77 80 83 86 87 88 90 87 72 57 46 36 26 18 9 7
43 42 42 42 42 43 42 42 42 42 41 40 40 40 41 42 43 43 44 46 47 49 49 50 50 50 49 49 47 46 46 46 46 47 49 49 50 51 52 53 54 56 59 62 65 69 73 77 81 83 86 87 89 91 86 71 56 45 35 26 18 8 7
44 44 44 44 45 45 45 45 44 44 43 42 41 40 40 41 42 43 43 44 45 47 49 49 50 50 51 52 52 51 50 49 49 49 49 50 50 51 52 53 54 56 59 62 65 69 73 77 81 84 86 87 89 91 86 70 55 44 34 26 17 8 6
43 44 45 46 46 47 47 47 46 46 46 46 44 42 41 41 42 43 43 43 44 45 47 48 49 50 51 52 53 54 55 54 52 51 50 50 51 52 53 54 54 56 58 61 64 68 72 77 81 83 86 87 88 91 86 71 55 44 34 26 17 8 4
41 42 44 45 46 47 47 48 47 47 48 48 47 46 45 43 42 42 42 42 43 43 45 47 48 49 50 52 53 54 56 57 56 55 54 53 53 53 54 54 54 56 58 61 64 68 72 76 80 83 85 87 88 91 86 71 56 45 35 26 18 9 3
41 42 43 44 45 46 47 48 47 47 48 49 49 49 48 47 45 43 42 41 41 42 43 45 47 48 49 51 52 54 56 57 58 58 58 56 55 54 54 54 55 56 59 61 64 68 72 76 80 83 85 87 88 90 87 73 58 46 36 27 19 11 3
42 42 43 44 45 45 46 47 47 47 47 48 49 50 50 50 49 46 44 42 41 41 42 43 45 47 49 50 51 53 55 56 57 58 59 59 58 56 55 55 55 57 59 61 64 67 71 75 80 83 85 86 87 90 87 74 59 48 37 29 21 12 4
43 43 44 45 46 45 45 46 47 47 47 48 49 50 51 52 52 51 49 46 43 42 41 42 44 46 48 50 51 53 54 55 56 58 60 61 60 59 56 55 55 56 58 60 63 66 70 75 79 82 85 86 87 89 88 76 61 50 39 30 23 14 6
43 44 44 45 46 47 46 47 47 47 48 49 50 50 51 52 53 53 53 51 49 46 43 42 43 45 47 49 51 53 54 54 56 57 59 62 62 61 58 56 55 55 57 60 62 66 70 74 78 82 84 86 86 88 88 78 64 52 41 32 25 16 7
43 44 45 45 46 47 47 47 47 47 48 49 51 51 52 52 53 54 54 54 54 52 48 44 43 44 47 50 52 53 53 54 55 56 59 61 63 63 61 58 56 56 57 59 61 65 69 73 77 81 83 85 86 87 88 80 66 54 44 34 27 18 9
42 43 45 45 46 46 47 48 48 48 48 49 51 52 53 53 54 54 55 56 56 56 54 50 46 45 47 50 52 53 53 54 54 55 57 60 62 63 62 60 57 57 57 59 61 64 68 72 76 79 82 85 86 86 87 82 69 57 46 36 28 20 11
40 41 43 44 46 46 46 47 48 48 48 48 51 53 54 54 55 55 55 56 57 57 57 55 52 49 49 50 52 52 53 54 54 54 56 59 61 63 63 61 59 58 58 59 61 63 66 70 74 78 81 83 85 86 86 82 72 59 48 39 30 22 13
38 38 40 42 44 46 46 47 47 48 47 47 51 54 55 55 56 56 56 56 56 57 58 58 57 54 53 52 52 53 53 53 54 54 55 57 60 62 64 63 60 58 58 60 60 62 65 69 73 77 80 82 83 84 85 83 75 62 51 41 32 24 15
38 38 40 42 43 44 46 46 47 47 47 49 52 55 55 55 56 57 57 58 58 58 58 58 58 57 56 54 53 53 53 53 53 53 54 56 58 61 63 63 61 59 59 60 60 60 63 67 71 75 78 80 82 83 83 82 76 65 54 44 35 26 18
42 42 44 45 44 44 45 46 47 48 49 51 53 55 55 56 56 57 58 58 59 59 59 58 59 59 58 56 54 53 52 52 52 53 54 55 57 60 62 63 61 58 58 59 58 58 61 65 69 73 76 78 80 81 82 81 77 68 57 47 38 29 20
47 47 48 47 45 45 45 46 47 49 50 52 54 55 55 56 57 58 58 59 59 59 59 59 60 60 60 58 56 53 52 51 51 51 53 54 55 58 61 62 61 57 56 58 57 57 59 63 66 70 74 76 78 80 80 80 77 70 60 50 41 32 23
51 51 51 49 48 47 47 47 48 50 51 53 55 56 57 57 57 58 59 60 60 60 59 60 61 61 61 61 58 54 52 51 50 50 51 52 54 57 59 61 60 56 54 56 57 56 57 61 64 68 72 75 76 78 79 78 77 72 63 53 44 35 26
55 55 54 52 51 49 48 48 49 51 53 55 56 57 58 58 58 59 60 61 61 60 60 61 61 62 62 62 60 56 52 50 49 48 49 51 53 55 57 59 59 55 52 54 56 56 56 59 62 66 70 73 74 76 77 77 76 73 66 56 47 39 30
60 59 57 55 53 51 51 50 51 52 54 55 57 58 59 59 60 60 60 61 62 61 61 61 62 62 63 62 61 57 52 49 48 48 47 49 51 54 55 57 57 55 52 52 55 56 55 57 60 64 67 71 73 74 75 76 75 73 68 59 51 42 33
62 62 60 58 55 54 54 54 54 55 55 56 58 59 59 60 61 61 61 61 62 62 62 62 62 62 63 63 61 58 52 48 48 47 46 46 50 52 53 55 56 55 52 51 53 55 55 55 58 61 65 69 71 72 73 74 73 72 69 62 54 45 37
64 63 61 60 58 57 58 57 57 57 57 58 59 60 60 61 62 62 63 63 63 63 62 62 62 62 62 62 61 58 53 47 46 46 44 44 47 50 51 53 54 54 52 51 52 53 53 54 55 59 63 67 69 71 72 72 72 71 69 64 56 48 41
Wind_Direction
6 4 2 1 359 359 358 357 354 348 342 336 330 326 322 322 324 325 326 327 328 328 329 331 333 334 334 336 339 341 343 345 347 348 349 351 353 354 355 357 358 358 357 356 355 353 352 351 352 353 354 355 357 358 359 358 355 347 336 331 332 333 337
13 12 11 10 8 7 7 7 6 3 359 352 345 337 331 328 328 328 328 329 329 330 330 331 332 332 333 335 338 340 342 344 345 347 348 350 352 353 354 356 357 357 357 356 355 354 353 352 352 352 353 353 354 356 357 356 354 349 338 328 327 328 329
18 19 19 19 17 16 15 13 12 10 6 1 354 346 338 333 330 329 329 328 328 329 329 329 329 330 331 333 336 337 339 342 343 346 347 349 351 352 354 356 356 356 355 355 354 353 352 352 352 351 351 352 352 353 354 354 353 349 341 328 320 320 321
22 24 24 25 25 24 22 19 16 13 9 3 356 348 341 336 332 329 327 326 326 326 326 326 326 327 329 331 334 335 337 339 341 343 345 347 349 351 353 355 355 355 354 354 353 352 352 351 351 350 350 350 350 351 352 352 351 348 342 330 316 310 310
24 26 27 27 27 27 26 24 21 18 14 8 2 354 346 340 334 330 327 325 325 324 324 324 325 326 328 330 333 334 336 338 339 341 343 345 348 350 352 354 354 353 353 353 353 352 351 350 350 350 349 349 349 349 350 350 349 346 341 332 315 302 298
25 26 27 27 27 26 25 23 22 21 19 15 11 5 358 350 343 337 333 330 328 326 325 325 326 326 328 331 333 335 336 338 339 340 341 343 347 349 351 352 352 352 352 353 352 352 351 350 350 349 348 348 348 348 348 348 347 344 340 332 317 298 286
25 25 25 25 24 23 22 21 20 19 18 17 15 12 8 4 359 353 348 343 339 336 333 332 331 332 333 334 336 338 339 340 340 340 340 342 345 348 349 350 350 351 352 352 352 351 350 350 349 349 348 347 348 348 347 346 345 343 338 332 319 298 276
29 28 26 24 22 21 20 19 18 17 16 14 13 12 11 10 8 5 1 357 353 350 347 344 343 342 341 341 341 342 342 341 341 340 339 341 344 346 347 348 348 349 350 352 352 351 350 349 349 349 348 347 347 347 346 346 345 342 337 331 320 299 271
35 33 31 28 25 23 21 19 17 15 14 13 12 10 9 9 9 8 7 4 2 359 357 355 353 351 349 347 346 345 344 343 342 341 340 341 343 344 345 346 346 347 349 351 351 351 350 349 349 348 348 347 346 346 345 345 344 342 337 330 321 300 268
35 34 33 31 30 28 26 22 19 15 12 9 7 6 6 5 6 6 6 6 5 3 1 359 358 356 353 351 349 347 346 345 345 344 342 341 343 344 344 345 345 346 349 350 351 350 349 349 349 348 348 347 346 346 345 345 344 342 337 330 320 302 268
32 31 31 30 29 28 28 26 24 22 18 13 8 4 2 1 1 2 2 2 2 2 1 0 359 358 356 354 351 349 347 347 346 346 344 343 343 344 344 344 345 347 349 350 350 350 349 349 349 348 348 347 346 347 346 346 345 342 337 331 319 302 268
30 29 28 27 26 26 26 25 25 24 23 21 18 13 7 3 360 358 357 358 358 358 358 357 357 357 356 354 352 350 349 348 348 347 346 345 344 345 345 345 346 347 349 350 350 350 349 349 349 348 347 346 347 348 348 347 346 342 338 332 318 301 266
26 26 25 24 23 23 22 22 22 22 21 21 20 18 15 11 6 2 358 355 354 353 354 353 353 353 353 353 352 350 349 349 349 348 347 347 345 345 346 346 346 348 349 350 350 350 349 349 349 347 347 347 348 349 349 348 347 344 339 333 321 300 262
21 21 21 20 20 19 19 19 19 19 18 18 18 17 17 15 13 10 5 1 356 352 350 350 350 350 350 351 350 350 350 349 349 348 348 347 346 345 345 346 347 348 349 349 350 350 350 349 348 347 347 347 348 350 350 349 348 345 341 336 324 300 255
16 17 16 16 16 16 15 16 16 15 15 15 15 14 14 14 14 13 11 8 5 359 354 350 348 348 348 349 349 348 348 348 348 347 347 347 347 346 346 346 347 347 348 349 350 350 350 349 348 347 347 348 349 350 351 350 349 347 343 338 329 301 252
13 12 13 12 12 12 13 13 13 12 12 12 12 12 12 11 11 11 11 10 10 7 4 0 356 352 350 349 348 347 346 345 345 346 346 346 346 346 346 347 347 347 347 348 350 350 350 349 348 347 348 349 350 351 352 351 350 348 344 340 334 307 252
13 11 10 9 8 9 10 10 10 9 9 9 10 10 9 9 8 8 7 7 8 7 7 7 5 2 358 354 350 346 344 343 343 344 344 344 345 345 346 347 347 347 347 348 350 350 350 349 348 348 348 349 351 352 353 352 351 349 346 342 338 318 250
15 13 11 10 9 9 8 8 7 6 6 6 6 7 7 7 6 5 4 4 4 4 4 5 5 5 4 1 357 350 345 342 341 341 342 343 343 344 346 347 347 347 347 348 350 350 350 349 348 349 349 350 351 353 354 354 353 351 348 345 342 328 246
15 15 13 12 12 12 11 10 7 5 4 3 3 3 3 3 2 2 2 1 1 1 1 1 1 2 2 2 2 359 354 349 344 342 342 343 344 344 345 346 347 347 347 348 349 350 350 349 349 349 350 351 352 354 355 355 355 353 351 348 345 334 246
11 11 11 11 11 12 13 13 11 9 6 4 2 1 360 359 358 358 360 360 358 358 358 358 359 358 358 358 360 0 360 357 353 349 346 345 345 345 345 346 346 346 347 348 349 350 350 349 349 350 351 352 353 355 356 356 356 355 353 351 348 338 255
6 6 6 6 7 8 9 10 11 11 9 7 5 2 -0 358 356 356 357 358 357 356 355 355 356 356 356 355 356 357 358 358 358 355 351 348 346 346 345 345 346 346 347 349 349 350 350 350 350 351 352 353 354 356 357 358 358 357 356 354 352 344 278
359 360 360 0 1 2 3 5 6 8 8 8 6 4 2 0 358 355 355 356 356 355 353 353 353 354 354 353 353 353 354 356 357 356 354 351 348 346 345 346 346 347 348 349 350 350 350 350 350 351 352 353 355 357 358 359 359 359 359 358 356 350 314
354 354 354 354 356 357 358 359 1 2 3 4 3 3 3 2 1 358 356 355 354 354 352 351 351 351 352 352 351 351 351 353 354 356 355 353 351 348 346 346 347 347 348 350 350 350 350 350 351 352 353 354 355 357 359 360 1 1 1 2 1 355 340
350 350 349 349 350 351 352 354 356 357 358 359 359 360 -0 0 0 0 359 357 354 353 352 351 350 350 350 350 350 349 349 350 352 353 354 354 353 350 348 347 347 348 349 350 350 350 350 351 352 353 354 354 355 358 359 0 2 2 2 4 4 359 348
346 346 347 346 346 347 347 349 350 352 353 354 355 355 356 357 358 358 358 358 356 355 353 351 350 349 349 349 349 348 348 348 349 351 352 353 353 352 350 349 349 349 350 350 351 350 350 351 352 353 354 354 355 358 359 1 3 3 4 5 6 2 353
343 343 344 344 344 344 344 345 346 347 349 351 352 352 352 353 354 354 355 355 356 356 355 352 349 348 348 348 348 347 347 346 347 348 350 351 352 352 351 350 350 350 351 351 352 351 351 351 353 354 354 354 355 357 359 2 3 4 4 6 7 4 357
341 340 341 342 343 343 343 342 343 343 345 347 349 349 349 349 350 351 351 352 353 354 355 353 350 347 345 345 347 346 346 345 345 346 347 349 351 351 351 350 350 351 351 351 353 352 351 352 353 354 355 354 355 357 359 2 4 5 5 7 8 6 1
339 339 340 340 341 341 342 342 341 341 342 344 346 347 346 346 346 347 348 349 349 351 352 352 352 349 344 343 345 346 345 345 345 344 345 347 349 350 350 350 350 351 351 352 354 353 352 352 353 354 355 355 354 356 358 1 4 5 6 7 9 8 4
337 338 339 339 339 340 341 341 341 340 340 342 343 344 344 343 343 344 345 345 346 347 349 350 351 350 346 343 343 345 344 344 344 343 343 344 346 348 349 350 350 350 351 352 354 354 353 352 353 355 355 355 354 355 358 1 4 6 6 8 9 9 5
335 336 337 338 338 338 339 340 340 340 339 339 340 341 342 341 340 341 342 343 344 344 346 347 348 349 347 344 342 342 343 342 343 342 341 342 344 345 347 349 350 350 351 353 354 355 354 353 354 355 355 354 354 354 357 0 3 5 7 8 10 10 5
332 332 333 334 335 335 336 338 339 340 338 338 339 340 340 339 338 338 339 340 341 341 342 343 345 346 347 345 342 340 340 341 341 341 341 340 341 342 345 347 349 351 352 353 354 355 355 353 354 355 355 354 354 354 356 359 2 5 7 9 10 10 6
328 328 329 331 332 333 334 336 338 338 338 338 339 339 339 338 337 336 337 337 338 339 339 340 341 342 344 344 343 339 338 339 339 340 340 339 338 339 342 346 348 351 353 354 355 356 355 354 354 355 355 354 354 354 355 358 2 5 7 9 10 10 7
328 327 327 328 329 330 332 333 334 336 336 337 338 338 337 337 337 336 335 335 335 336 336 337 337 339 340 342 342 340 337 336 337 338 338 338 337 337 339 343 347 350 352 354 355 356 356 355 355 355 355 354 354 354 354 357 1 4 6 8 10 11 9
328 327 326 326 326 327 329 330 331 332 334 336 336 336 336 336 336 336 335 333 333 333 334 334 334 335 337 338 340 339 336 334 335 336 337 337 336 335 337 341 345 348 350 353 354 355 356 355 355 355 355 354 354 354 354 356 360 4 6 8 9 11 10
328 327 325 324 324 325 325 327 328 330 332 334 334 334 333 333 334 335 334 332 331 331 331 331 331 332 333 335 337 338 336 332 332 333 334 336 335 334 335 338 342 346 348 351 353 355 355 355 355 355 355 354 354 353 354 356 359 2 6 7 8 10 11
328 327 325 323 322 322 323 324 325 327 330 332 331 331 331 331 331 332 332 331 329 328 328 329 328 329 330 331 334 336 335 331 329 330 332 334 334 333 333 336 340 343 347 349 351 353 355 355 354 355 355 354 353 353 354 356 358 1 5 7 7 9 10
327 327 325 323 322 321 322 323 323 325 327 328 328 327 328 329 329 329 330 329 328 326 325 326 326 326 327 329 330 333 334 329 326 327 330 332 333 332 332 335 338 341 345 347 348 351 355 354 354 355 355 354 353 353 354 356 358 1 4 6 7 8 9
Height
10623 10620 10617 10614 10612 10609 10607 10605 10604 10602 10601 10600 10599 10598 10597 10595 10594 10593 10591 10589 10587 10584 10581 10579 10576 10572 10569 10566 10562 10558 10554 10550 10546 10541 10536 10531 10526 10521 10516 10512 10506 10501 10495 10490 10484 10477 10469 10460 10453 10446 10441 10436 10432 10426 10420 10415 10410 10404 10399 10395 10393 10390 10387
10623 10620 10617 10615 10612 10610 10607 10606 10604 10602 10601 10600 10598 10597 10596 10595 10593 10591 10589 10587 10585 10582 10579 10576 10574 10570 10567 10564 10560 10556 10553 10549 10545 10540 10535 10530 10524 10519 10513 10508 10503 10498 10493 10488 10482 10477 10470 10462 10454 10445 10438 10431 10426 10422 10418 10413 10409 10403 10398 10393 10391 10388 10385
10623 10621 10618 10615 10613 10610 10608 10606 10604 10603 10601 10600 10599 10597 10596 10594 10592 10590 10588 10585 10583 10580 10577 10574 10571 10568 10565 10562 10558 10554 10551 10547 10543 10539 10534 10529 10524 10519 10513 10507 10501 10495 10490 10484 10478 10472 10466 10459 10452 10445 10439 10432 10426 10420 10416 10411 10406 10401 10396 10391 10388 10387 10384
10623 10621 10618 10616 10613 10611 10609 10607 10605 10603 10602 10600 10598 10597 10595 10593 10591 10589 10586 10583 10581 10578 10575 10572 10569 10566 10563 10560 10556 10553 10549 10545 10541 10537 10533 10528 10523 10518 10512 10506 10500 10494 10488 10482 10476 10470 10464 10457 10450 10443 10436 10430 10425 10419 10414 10409 10403 10398 10394 10389 10385 10384 10383
10623 10621 10619 10617 10614 10612 10610 10608 10606 10604 10602 10600 10598 10596 10594 10592 10590 10587 10584 10582 10579 10576 10573 10570 10567 10564 10560 10557 10554 10551 10547 10543 10539 10535 10531 10527 10522 10517 10511 10506 10500 10494 10488 10482 10476 10470 10463 10457 10451 10445 10437 10430 10422 10415 10410 10405 10400 10395 10390 10386 10382 10380 10380
10624 10622 10620 10618 10615 10613 10611 10609 10606 10604 10602 10600 10598 10596 10593 10591 10588 10585 10583 10580 10577 10574 10571 10568 10565 10562 10558 10555 10552 10549 10545 10541 10538 10534 10529 10525 10520 10515 10510 10504 10499 10494 10488 10481 10474 10468 10462 10456 10448 10442 10436 10430 10422 10414 10406 10400 10396 10391 10386 10382 10379 10377 10376
10625 10622 10620 10618 10616 10614 10612 10609 10607 10604 10602 10600 10598 10596 10593 10590 10587 10584 10581 10578 10575 10572 10569 10566 10563 10560 10557 10553 10550 10547 10543 10540 10536 10532 10528 10523 10519 10514 10509 10503 10498 10492 10486 10480 10473 10466 10459 10453 10446 10438 10431 10424 10418 10412 10404 10397 10391 10385 10381 10377 10374 10372 10372
10626 10623 10621 10619 10617 10615 10612 10610 10608 10605 10603 10601 10598 10596 10593 10590 10587 10584 10580 10577 10574 10571 10568 10565 10562 10558 10555 10552 10549 10545 10542 10538 10534 10530 10526 10522 10517 10512 10507 10502 10496 10491 10485 10478 10471 10464 10457 10450 10443 10436 10429 10420 10412 10406 10400 10393 10386 10380 10375 10372 10370 10368 10368
10627 10625 10622 10620 10618 10616 10613 10611 10608 10606 10604 10601 10598 10596 10593 10590 10587 10584 10580 10577 10574 10570 10567 10564 10561 10557 10554 10551 10547 10544 10541 10537 10533 10529 10525 10520 10516 10511 10506 10501 10495 10489 10483 10476 10469 10462 10455 10448 10440 10433 10426 10418 10410 10402 10394 10387 10381 10375 10370 10366 10365 10364 10364
10628 10626 10624 10621 10619 10616 10614 10611 10609 10606 10604 10601 10599 10596 10593 10590 10587 10584 10580 10577 10573 10570 10567 10563 10560 10557 10553 10550 10547 10543 10540 10536 10532 10528 10523 10519 10514 10510 10505 10500 10494 10487 10481 10474 10467 10460 10453 10445 10438 10430 10422 10415 10407 10399 10390 10382 10374 10368 10364 10361 10359 10359 10359
10630 10628 10625 10623 10620 10617 10615 10612 10609 10607 10604 10601 10599 10596 10593 10590 10587 10584 10580 10577 10573 10570 10566 10563 10560 10557 10553 10550 10546 10542 10539 10535 10531 10527 10522 10518 10513 10508 10503 10498 10492 10486 10479 10472 10464 10457 10450 10442 10434 10426 10418 10411 10403 10395 10386 10377 10369 10362 10358 10355 10354 10354 10355
10632 10629 10627 10625 10622 10619 10616 10614 10611 10608 10605 10602 10599 10596 10593 10589 10586 10583 10580 10577 10573 10570 10566 10563 10559 10556 10553 10549 10545 10542 10538 10534 10530 10525 10521 10517 10511 10506 10501 10496 10490 10483 10477 10470 10462 10455 10447 10438 10430 10422 10415 10407 10399 10391 10381 10372 10364 10357 10352 10350 10348 10348 10350
10633 10631 10628 10626 10623 10621 10618 10615 10612 10609 10606 10603 10600 10596 10593 10590 10586 10583 10579 10576 10573 10569 10566 10562 10559 10555 10552 10548 10544 10541 10537 10533 10528 10524 10520 10516 10511 10505 10500 10494 10488 10481 10475 10468 10460 10453 10444 10435 10427 10419 10411 10403 10394 10385 10376 10366 10359 10352 10348 10345 10344 10344 10346
10634 10632 10629 10627 10624 10622 10619 10616 10612 10609 10607 10604 10601 10597 10594 10590 10586 10583 10579 10575 10572 10568 10565 10562 10558 10554 10551 10547 10543 10539 10535 10531 10527 10523 10518 10514 10509 10504 10498 10493 10486 10480 10473 10466 10458 10450 10442 10433 10425 10416 10408 10399 10389 10380 10371 10361 10353 10348 10343 10341 10340 10340 10342
10635 10632 10630 10628 10625 10622 10619 10616 10613 10610 10607 10604 10601 10598 10595 10591 10587 10583 10579 10576 10572 10568 10564 10561 10557 10553 10550 10546 10542 10538 10534 10530 10526 10521 10517 10512 10508 10502 10497 10491 10485 10479 10472 10465 10457 10449 10440 10432 10424 10415 10406 10396 10386 10377 10367 10358 10350 10344 10340 10337 10336 10337 10338
10636 10633 10631 10628 10626 10623 10619 10616 10613 10610 10607 10605 10602 10599 10595 10592 10588 10584 10580 10576 10572 10568 10564 10560 10556 10553 10549 10545 10541 10537 10533 10529 10524 10519 10515 10510 10506 10501 10495 10489 10483 10477 10471 10464 10456 10448 10439 10431 10423 10414 10404 10394 10384 10375 10365 10355 10347 10341 10337 10335 10334 10334 10335
10636 10634 10631 10629 10626 10623 10620 10616 10613 10610 10608 10605 10602 10598 10595 10592 10588 10585 10581 10577 10573 10568 10564 10560 10556 10552 10548 10544 10540 10535 10531 10527 10522 10517 10513 10508 10503 10499 10493 10488 10482 10476 10469 10462 10454 10446 10438 10430 10421 10412 10402 10392 10382 10372 10363 10353 10345 10339 10335 10332 10332 10332 10332
10636 10634 10631 10629 10626 10623 10620 10617 10613 10610 10607 10605 10601 10598 10595 10592 10588 10585 10581 10577 10573 10568 10564 10560 10556 10552 10548 10543 10539 10534 10529 10525 10520 10515 10511 10506 10502 10497 10492 10486 10480 10474 10467 10460 10453 10445 10437 10428 10419 10410 10401 10391 10381 10371 10361 10351 10343 10337 10333 10331 10330 10330 10330
10636 10634 10631 10629 10626 10623 10620 10617 10614 10610 10607 10604 10601 10598 10594 10591 10588 10584 10581 10577 10572 10568 10564 10560 10555 10551 10547 10543 10538 10533 10528 10523 10518 10514 10509 10504 10499 10495 10490 10485 10479 10472 10466 10459 10452 10444 10435 10426 10417 10408 10399 10389 10379 10369 10359 10350 10342 10336 10332 10329 10329 10328 10328
10636 10633 10631 10629 10626 10623 10620 10617 10614 10610 10607 10603 10600 10597 10594 10590 10587 10583 10580 10576 10572 10568 10563 10559 10555 10551 10547 10542 10537 10533 10528 10522 10517 10512 10507 10503 10498 10493 10488 10483 10477 10471 10465 10458 10451 10443 10434 10425 10416 10407 10398 10388 10378 10368 10359 10349 10341 10335 10331 10328 10327 10327 10326
10636 10633 10631 10628 10625 10623 10619 10616 10613 10610 10607 10603 10600 10596 10593 10589 10586 10582 10578 10575 10571 10567 10563 10558 10554 10550 10546 10541 10537 10532 10527 10522 10516 10511 10506 10501 10496 10491 10486 10480 10475 10469 10463 10457 10450 10442 10434 10425 10416 10407 10397 10388 10378 10368 10358 10349 10341 10335 10331 10328 10326 10326 10325
10636 10633 10631 10628 10625 10622 10619 10616 10613 10609 10606 10603 10599 10596 10592 10589 10585 10581 10577 10574 10570 10566 10562 10558 10553 10549 10545 10540 10536 10531 10526 10521 10516 10510 10505 10500 10494 10489 10484 10479 10473 10467 10461 10455 10448 10440 10433 10424 10415 10406 10397 10387 10377 10368 10358 10349 10341 10335 10331 10327 10326 10325 10325
10635 10632 10629 10627 10624 10621 10618 10615 10611 10608 10605 10602 10598 10595 10591 10588 10584 10580 10576 10572 10569 10565 10561 10557 10552 10548 10544 10540 10535 10531 10526 10521 10515 10510 10505 10499 10494 10488 10483 10477 10472 10466 10459 10453 10447 10439 10432 10423 10414 10405 10396 10387 10378 10369 10359 10350 10342 10336 10331 10327 10325 10324 10324
10633 10631 10628 10625 10623 10620 10616 10613 10610 10606 10603 10601 10598 10594 10590 10586 10583 10579 10575 10571 10567 10564 10560 10556 10552 10547 10543 10539 10535 10530 10525 10520 10515 10509 10504 10498 10493 10487 10482 10476 10471 10465 10459 10453 10446 10439 10431 10423 10414 10404 10396 10387 10378 10370 10361 10352 10343 10337 10332 10328 10326 10324 10324
10631 10629 10627 10624 10621 10618 10614 10611 10608 10605 10602 10599 10596 10592 10588 10584 10581 10577 10573 10569 10566 10562 10558 10554 10550 10546 10542 10538 10533 10529 10524 10519 10514 10508 10503 10497 10492 10486 10480 10475 10469 10464 10458 10452 10446 10438 10430 10422 10414 10405 10396 10387 10379 10370 10362 10353 10345 10338 10332 10328 10326 10325 10324
10630 10627 10625 10622 10619 10616 10613 10610 10607 10604 10601 10597 10594 10590 10586 10582 10579 10575 10571 10568 10564 10560 10556 10553 10549 10545 10540 10536 10532 10527 10522 10518 10513 10507 10502 10497 10491 10485 10479 10474 10468 10462 10457 10451 10445 10438 10430 10422 10414 10405 10397 10388 10379 10371 10363 10355 10346 10339 10334 10329 10327 10325 10324
10629 10625 10623 10620 10617 10614 10611 10608 10605 10602 10599 10595 10592 10588 10584 10580 10577 10574 10570 10566 10562 10558 10554 10551 10547 10543 10539 10534 10530 10526 10521 10516 10511 10506 10501 10496 10490 10485 10479 10473 10467 10462 10456 10450 10444 10438 10430 10422 10414 10406 10398 10389 10380 10372 10365 10357 10348 10341 10335 10331 10328 10326 10325
10627 10624 10620 10617 10614 10612 10609 10606 10603 10600 10597 10593 10590 10586 10582 10578 10575 10571 10568 10564 10560 10556 10552 10548 10544 10541 10537 10533 10528 10524 10519 10515 10510 10505 10500 10495 10490 10484 10478 10472 10467 10461 10456 10450 10444 10437 10430 10423 10414 10406 10398 10390 10381 10373 10366 10359 10351 10343 10337 10332 10329 10327 10326
10625 10622 10619 10615 10612 10608 10606 10603 10600 10597 10595 10592 10588 10585 10581 10576 10573 10569 10566 10562 10558 10554 10549 10545 10542 10538 10535 10531 10526 10522 10518 10513 10509 10504 10499 10494 10489 10484 10478 10472 10466 10461 10456 10450 10444 10437 10430 10423 10415 10407 10399 10391 10383 10375 10368 10360 10353 10346 10339 10334 10331 10328 10327
10623 10620 10617 10614 10610 10606 10603 10600 10597 10594 10592 10589 10587 10583 10579 10575 10571 10567 10564 10560 10556 10552 10547 10543 10540 10536 10533 10529 10525 10521 10516 10512 10507 10503 10498 10493 10488 10483 10478 10472 10466 10460 10455 10450 10444 10438 10431 10423 10416 10408 10400 10393 10385 10377 10370 10362 10355 10348 10342 10336 10332 10330 10328
10621 10618 10615 10612 10608 10604 10601 10597 10594 10591 10589 10586 10584 10581 10577 10573 10568 10564 10561 10557 10553 10549 10545 10541 10538 10534 10531 10527 10523 10519 10515 10511 10506 10502 10497 10492 10487 10483 10478 10472 10466 10460 10455 10450 10445 10439 10432 10425 10417 10410 10403 10395 10387 10379 10372 10365 10358 10350 10344 10338 10334 10331 10329
10617 10615 10612 10610 10606 10602 10598 10595 10591 10589 10586 10583 10580 10577 10574 10571 10567 10562 10558 10554 10551 10547 10542 10538 10535 10532 10528 10525 10521 10517 10513 10509 10505 10500 10496 10491 10487 10482 10477 10472 10466 10461 10455 10451 10445 10440 10433 10427 10419 10412 10405 10397 10389 10381 10374 10368 10361 10353 10346 10340 10335 10332 10330
10614 10611 10608 10605 10603 10599 10596 10592 10589 10586 10583 10580 10577 10573 10570 10567 10564 10560 10555 10551 10548 10544 10540 10536 10532 10528 10525 10522 10519 10515 10511 10507 10503 10499 10495 10490 10486 10482 10477 10472 10467 10461 10456 10451 10446 10440 10434 10428 10421 10414 10407 10399 10391 10384 10376 10370 10363 10355 10348 10342 10337 10333 10331
10609 10607 10604 10601 10598 10595 10592 10590 10586 10583 10580 10576 10573 10570 10566 10563 10560 10557 10552 10548 10544 10541 10538 10533 10529 10525 10522 10519 10516 10512 10508 10505 10501 10497 10493 10489 10485 10481 10477 10472 10467 10461 10456 10451 10446 10440 10434 10428 10422 10415 10409 10401 10394 10386 10379 10371 10365 10357 10350 10344 10339 10335 10332
10603 10600 10598 10596 10593 10590 10588 10585 10582 10579 10576 10573 10569 10566 10562 10559 10556 10553 10549 10545 10541 10538 10535 10531 10526 10522 10519 10516 10513 10510 10506 10502 10499 10496 10492 10488 10483 10479 10476 10471 10466 10461 10456 10452 10446 10441 10435 10429 10423 10416 10410 10403 10396 10388 10380 10373 10366 10359 10352 10346 10341 10336 10333
10598 10595 10592 10590 10587 10585 10582 10579 10577 10574 10572 10569 10565 10562 10558 10555 10552 10549 10546 10542 10538 10534 10531 10528 10524 10520 10516 10512 10510 10507 10503 10500 10497 10494 10490 10486 10482 10478 10474 10470 10466 10461 10456 10451 10447 10441 10436 10430 10424 10418 10411 10405 10398 10390 10382 10375 10368 10361 10354 10348 10342 10338 10334
10593 10590 10587 10584 10582 10579 10576 10574 10571 10568 10567 10564 10561 10557 10554 10551 10547 10544 10542 10539 10535 10530 10527 10524 10521 10517 10514 10509 10506 10504 10501 10497 10494 10491 10488 10484 10480 10476 10473 10469 10465 10460 10455 10451 10447 10442 10436 10431 10425 10419 10413 10406 10399 10392 10384 10377 10370 10363 10356 10350 10344 10339 10335